Year,Month,Day,Hour,Minute,Value (Times are PST for temperature in C)
2013,05,06,00,00,15.00
2013,05,06,00,01,15.00
2013,05,06,00,02,15.00
2013,05,06,00,03,15.00
2013,05,06,00,04,15.00
2013,05,06,00,05,15.00
2013,05,06,00,06,15.00
2013,05,06,00,07,15.10
2013,05,06,00,08,15.00
2013,05,06,00,09,15.00
2013,05,06,00,10,15.00
2013,05,06,00,11,15.00
2013,05,06,00,12,15.10
2013,05,06,00,13,15.10
2013,05,06,00,14,15.10
2013,05,06,00,15,15.10
2013,05,06,00,16,15.10
2013,05,06,00,17,15.10
2013,05,06,00,18,15.10
2013,05,06,00,19,15.00
2013,05,06,00,20,15.00
2013,05,06,00,21,15.00
2013,05,06,00,22,15.00
2013,05,06,00,23,15.00
2013,05,06,00,24,15.00
2013,05,06,00,25,15.00
2013,05,06,00,26,15.00
2013,05,06,00,27,15.00
2013,05,06,00,28,15.00
2013,05,06,00,29,15.00
2013,05,06,00,30,15.00
2013,05,06,00,31,15.00
2013,05,06,00,32,15.00
2013,05,06,00,33,15.00
2013,05,06,00,34,15.00
2013,05,06,00,35,15.00
2013,05,06,00,36,15.00
2013,05,06,00,37,15.00
2013,05,06,00,38,15.00
2013,05,06,00,39,15.00
2013,05,06,00,40,15.00
2013,05,06,00,41,15.10
2013,05,06,00,42,15.20
2013,05,06,00,43,15.20
2013,05,06,00,44,15.20
2013,05,06,00,45,15.20
2013,05,06,00,46,15.20
2013,05,06,00,47,15.20
2013,05,06,00,48,15.20
2013,05,06,00,49,15.20
2013,05,06,00,50,15.20
2013,05,06,00,51,15.20
2013,05,06,00,52,15.20
2013,05,06,00,53,15.20
2013,05,06,00,54,15.20
2013,05,06,00,55,15.20
2013,05,06,00,56,15.20
2013,05,06,00,57,15.20
2013,05,06,00,58,15.10
2013,05,06,00,59,15.10
2013,05,06,01,00,15.10
2013,05,06,01,01,15.00
2013,05,06,01,02,15.00
2013,05,06,01,03,15.00
2013,05,06,01,04,15.00
2013,05,06,01,05,15.00
2013,05,06,01,06,15.00
2013,05,06,01,07,15.00
2013,05,06,01,08,15.00
2013,05,06,01,09,15.00
2013,05,06,01,10,15.00
2013,05,06,01,11,15.00
2013,05,06,01,12,15.00
2013,05,06,01,13,15.00
2013,05,06,01,14,15.00
2013,05,06,01,15,15.00
2013,05,06,01,16,15.00
2013,05,06,01,17,15.00
2013,05,06,01,18,15.00
2013,05,06,01,19,15.00
2013,05,06,01,20,15.00
2013,05,06,01,21,15.00
2013,05,06,01,22,15.00
2013,05,06,01,23,15.00
2013,05,06,01,24,15.00
2013,05,06,01,25,15.00
2013,05,06,01,26,15.00
2013,05,06,01,27,15.00
2013,05,06,01,28,14.90
2013,05,06,01,29,14.80
2013,05,06,01,30,14.80
2013,05,06,01,31,14.80
2013,05,06,01,32,14.80
2013,05,06,01,33,14.80
2013,05,06,01,34,14.80
2013,05,06,01,35,14.90
2013,05,06,01,36,14.90
2013,05,06,01,37,15.00
2013,05,06,01,38,15.00
2013,05,06,01,39,15.00
2013,05,06,01,40,15.00
2013,05,06,01,41,15.00
2013,05,06,01,42,15.00
2013,05,06,01,43,15.00
2013,05,06,01,44,15.00
2013,05,06,01,45,15.00
2013,05,06,01,46,15.00
2013,05,06,01,47,15.00
2013,05,06,01,48,15.00
2013,05,06,01,49,15.00
2013,05,06,01,50,15.00
2013,05,06,01,51,15.00
2013,05,06,01,52,15.00
2013,05,06,01,53,15.00
2013,05,06,01,54,15.00
2013,05,06,01,55,14.90
2013,05,06,01,56,14.80
2013,05,06,01,57,14.80
2013,05,06,01,58,14.70
2013,05,06,01,59,14.70
2013,05,06,02,00,14.70
2013,05,06,02,01,14.60
2013,05,06,02,02,14.60
2013,05,06,02,03,14.60
2013,05,06,02,04,14.50
2013,05,06,02,05,14.50
2013,05,06,02,06,14.50
2013,05,06,02,07,14.40
2013,05,06,02,08,14.40
2013,05,06,02,09,14.40
2013,05,06,02,10,14.30
2013,05,06,02,11,14.20
2013,05,06,02,12,14.10
2013,05,06,02,13,14.10
2013,05,06,02,14,14.00
2013,05,06,02,15,14.00
2013,05,06,02,16,14.00
2013,05,06,02,17,13.90
2013,05,06,02,18,13.90
2013,05,06,02,19,13.90
2013,05,06,02,20,13.90
2013,05,06,02,21,13.90
2013,05,06,02,22,13.90
2013,05,06,02,23,13.90
2013,05,06,02,24,13.90
2013,05,06,02,25,13.90
2013,05,06,02,26,13.90
2013,05,06,02,27,14.00
2013,05,06,02,28,14.00
2013,05,06,02,29,14.00
2013,05,06,02,30,14.00
2013,05,06,02,31,14.00
2013,05,06,02,32,14.10
2013,05,06,02,33,14.10
2013,05,06,02,34,14.00
2013,05,06,02,35,14.00
2013,05,06,02,36,14.00
2013,05,06,02,37,14.00
2013,05,06,02,38,14.00
2013,05,06,02,39,14.00
2013,05,06,02,40,14.00
2013,05,06,02,41,13.90
2013,05,06,02,42,13.90
2013,05,06,02,43,13.90
2013,05,06,02,44,13.90
2013,05,06,02,45,13.90
2013,05,06,02,46,13.90
2013,05,06,02,47,13.80
2013,05,06,02,48,13.80
2013,05,06,02,49,13.80
2013,05,06,02,50,13.80
2013,05,06,02,51,13.80
2013,05,06,02,52,13.80
2013,05,06,02,53,13.70
2013,05,06,02,54,13.70
2013,05,06,02,55,13.70
2013,05,06,02,56,13.70
2013,05,06,02,57,13.60
2013,05,06,02,58,13.60
2013,05,06,02,59,13.60
2013,05,06,03,00,13.60
2013,05,06,03,01,13.60
2013,05,06,03,02,13.50
2013,05,06,03,06,13.40
2013,05,06,03,07,13.40
2013,05,06,03,08,13.40
2013,05,06,03,09,13.30
2013,05,06,03,10,13.30
2013,05,06,03,11,13.30
2013,05,06,03,12,13.30
2013,05,06,03,13,13.30
2013,05,06,03,14,13.20
2013,05,06,03,15,13.20
2013,05,06,03,16,13.20
2013,05,06,03,17,13.30
2013,05,06,03,18,13.30
2013,05,06,03,19,13.30
2013,05,06,03,20,13.30
2013,05,06,03,21,13.30
2013,05,06,03,22,13.30
2013,05,06,03,23,13.20
2013,05,06,03,24,13.20
2013,05,06,03,25,13.20
2013,05,06,03,26,13.20
2013,05,06,03,27,13.20
2013,05,06,03,28,13.20
2013,05,06,03,29,13.20
2013,05,06,03,30,13.20
2013,05,06,03,31,13.20
2013,05,06,03,32,13.20
2013,05,06,03,33,13.20
2013,05,06,03,34,13.20
2013,05,06,03,35,13.20
2013,05,06,03,36,13.20
2013,05,06,03,37,13.20
2013,05,06,03,38,13.20
2013,05,06,03,39,13.20
2013,05,06,03,40,13.20
2013,05,06,03,41,13.20
2013,05,06,03,42,13.20
2013,05,06,03,43,13.10
2013,05,06,03,44,13.10
2013,05,06,03,45,13.10
2013,05,06,03,46,13.10
2013,05,06,03,47,13.00
2013,05,06,03,48,12.90
2013,05,06,03,49,12.90
2013,05,06,03,50,12.90
2013,05,06,03,51,12.80
2013,05,06,03,52,12.80
2013,05,06,03,53,12.80
2013,05,06,03,54,12.80
2013,05,06,03,55,12.70
2013,05,06,03,56,12.70
2013,05,06,03,57,12.70
2013,05,06,03,58,12.70
2013,05,06,03,59,12.70
2013,05,06,04,00,12.60
2013,05,06,04,01,12.60
2013,05,06,04,02,12.60
2013,05,06,04,03,12.60
2013,05,06,04,04,12.50
2013,05,06,04,05,12.50
2013,05,06,04,06,12.50
2013,05,06,04,07,12.40
2013,05,06,04,08,12.40
2013,05,06,04,09,12.40
2013,05,06,04,10,12.30
2013,05,06,04,11,12.30
2013,05,06,04,12,12.30
2013,05,06,04,13,12.30
2013,05,06,04,14,12.30
2013,05,06,04,15,12.30
2013,05,06,04,16,12.40
2013,05,06,04,17,12.50
2013,05,06,04,18,12.50
2013,05,06,04,19,12.50
2013,05,06,04,20,12.60
2013,05,06,04,21,12.60
2013,05,06,04,22,12.60
2013,05,06,04,23,12.60
2013,05,06,04,24,12.60
2013,05,06,04,25,12.60
2013,05,06,04,26,12.50
2013,05,06,04,27,12.50
2013,05,06,04,28,12.40
2013,05,06,04,29,12.40
2013,05,06,04,30,12.30
2013,05,06,04,31,12.30
2013,05,06,04,32,12.30
2013,05,06,04,33,12.30
2013,05,06,04,34,12.30
2013,05,06,04,35,12.30
2013,05,06,04,36,12.30
2013,05,06,04,37,12.30
2013,05,06,04,38,12.40
2013,05,06,04,39,12.50
2013,05,06,04,40,12.60
2013,05,06,04,41,12.60
2013,05,06,04,42,12.60
2013,05,06,04,43,12.60
2013,05,06,04,44,12.70
2013,05,06,04,45,12.70
2013,05,06,04,46,12.80
2013,05,06,04,47,12.80
2013,05,06,04,48,12.80
2013,05,06,04,49,12.80
2013,05,06,04,50,12.80
2013,05,06,04,51,12.80
2013,05,06,04,52,12.80
2013,05,06,04,53,12.80
2013,05,06,04,54,12.90
2013,05,06,04,55,12.90
2013,05,06,04,56,12.90
2013,05,06,04,57,13.00
2013,05,06,04,58,13.10
2013,05,06,04,59,13.10
2013,05,06,05,00,13.20
2013,05,06,05,01,13.20
2013,05,06,05,02,13.30
2013,05,06,05,03,13.30
2013,05,06,05,04,13.40
2013,05,06,05,05,13.40
2013,05,06,05,06,13.40
2013,05,06,05,07,13.40
2013,05,06,05,08,13.40
2013,05,06,05,09,13.30
2013,05,06,05,10,13.30
2013,05,06,05,11,13.30
2013,05,06,05,12,13.30
2013,05,06,05,13,13.20
2013,05,06,05,14,13.20
2013,05,06,05,15,13.30
2013,05,06,05,16,13.30
2013,05,06,05,17,13.30
2013,05,06,05,18,13.40
2013,05,06,05,19,13.40
2013,05,06,05,20,13.50
2013,05,06,05,21,13.50
2013,05,06,05,22,13.60
2013,05,06,05,23,13.60
2013,05,06,05,24,13.60
2013,05,06,05,25,13.60
2013,05,06,05,26,13.60
2013,05,06,05,27,13.50
2013,05,06,05,28,13.50
2013,05,06,05,29,13.40
2013,05,06,05,30,13.40
2013,05,06,05,31,13.30
2013,05,06,05,32,13.20
2013,05,06,05,33,13.20
2013,05,06,05,34,13.10
2013,05,06,05,35,13.10
2013,05,06,05,36,13.10
2013,05,06,05,37,13.10
2013,05,06,05,38,13.10
2013,05,06,05,39,13.00
2013,05,06,05,40,13.10
2013,05,06,05,41,13.00
2013,05,06,05,42,13.00
2013,05,06,05,43,13.10
2013,05,06,05,44,13.00
2013,05,06,05,45,13.00
2013,05,06,05,46,13.00
2013,05,06,05,47,13.00
2013,05,06,05,48,13.00
2013,05,06,05,49,13.00
2013,05,06,05,50,13.00
2013,05,06,05,51,13.00
2013,05,06,05,52,13.00
2013,05,06,05,53,13.00
2013,05,06,05,54,13.10
2013,05,06,05,55,13.10
2013,05,06,05,56,13.10
2013,05,06,05,57,13.20
2013,05,06,05,58,13.20
2013,05,06,05,59,13.20
2013,05,06,06,00,13.10
2013,05,06,06,01,13.10
2013,05,06,06,02,13.10
2013,05,06,06,03,13.10
2013,05,06,06,04,13.10
2013,05,06,06,05,13.10
2013,05,06,06,06,13.10
2013,05,06,06,07,13.10
2013,05,06,06,08,13.00
2013,05,06,06,09,13.00
2013,05,06,06,10,13.00
2013,05,06,06,11,12.90
2013,05,06,06,12,12.90
2013,05,06,06,13,12.90
2013,05,06,06,14,12.90
2013,05,06,06,15,13.00
2013,05,06,06,16,13.00
2013,05,06,06,17,13.00
2013,05,06,06,18,13.00
2013,05,06,06,19,13.00
2013,05,06,06,20,13.10
2013,05,06,06,21,13.10
2013,05,06,06,22,13.10
2013,05,06,06,23,13.10
2013,05,06,06,24,13.10
2013,05,06,06,25,13.10
2013,05,06,06,26,13.10
2013,05,06,06,27,13.10
2013,05,06,06,28,13.20
2013,05,06,06,29,13.20
2013,05,06,06,30,13.20
2013,05,06,06,31,13.20
2013,05,06,06,32,13.20
2013,05,06,06,33,13.20
2013,05,06,06,34,13.20
2013,05,06,06,35,13.20
2013,05,06,06,36,13.20
2013,05,06,06,37,13.20
2013,05,06,06,38,13.20
2013,05,06,06,39,13.20
2013,05,06,06,40,13.20
2013,05,06,06,41,13.20
2013,05,06,06,42,13.20
2013,05,06,06,43,13.20
2013,05,06,06,44,13.20
2013,05,06,06,45,13.20
2013,05,06,06,46,13.20
2013,05,06,06,47,13.20
2013,05,06,06,48,13.20
2013,05,06,06,49,13.20
2013,05,06,06,50,13.20
2013,05,06,06,51,13.20
2013,05,06,06,52,13.30
2013,05,06,06,53,13.30
2013,05,06,06,54,13.30
2013,05,06,06,55,13.30
2013,05,06,06,56,13.30
2013,05,06,06,57,13.30
2013,05,06,06,58,13.30
2013,05,06,06,59,13.30
2013,05,06,07,00,13.30
2013,05,06,07,01,13.30
2013,05,06,07,02,13.30
2013,05,06,07,03,13.30
2013,05,06,07,04,13.40
2013,05,06,07,05,13.40
2013,05,06,07,06,13.40
2013,05,06,07,07,13.40
2013,05,06,07,08,13.50
2013,05,06,07,09,13.50
2013,05,06,07,10,13.50
2013,05,06,07,11,13.60
2013,05,06,07,12,13.70
2013,05,06,07,13,13.70
2013,05,06,07,14,13.80
2013,05,06,07,15,13.80
2013,05,06,07,16,13.90
2013,05,06,07,17,13.90
2013,05,06,07,18,14.00
2013,05,06,07,19,14.00
2013,05,06,07,20,14.10
2013,05,06,07,21,14.10
2013,05,06,07,22,14.20
2013,05,06,07,23,14.20
2013,05,06,07,24,14.30
2013,05,06,07,25,14.30
2013,05,06,07,26,14.40
2013,05,06,07,27,14.40
2013,05,06,07,28,14.50
2013,05,06,07,29,14.50
2013,05,06,07,30,14.60
2013,05,06,07,31,14.60
2013,05,06,07,32,14.70
2013,05,06,07,33,14.70
2013,05,06,07,34,14.80
2013,05,06,07,35,14.80
2013,05,06,07,36,15.00
2013,05,06,07,37,15.00
2013,05,06,07,38,15.00
2013,05,06,07,39,15.00
2013,05,06,07,40,15.00
2013,05,06,07,41,15.00
2013,05,06,07,42,15.00
2013,05,06,07,43,15.00
2013,05,06,07,44,15.10
2013,05,06,07,45,15.20
2013,05,06,07,46,15.20
2013,05,06,07,47,15.20
2013,05,06,07,48,15.20
2013,05,06,07,49,15.30
2013,05,06,07,50,15.30
2013,05,06,07,51,15.40
2013,05,06,07,52,15.40
2013,05,06,07,53,15.50
2013,05,06,07,54,15.50
2013,05,06,07,55,15.60
2013,05,06,07,56,15.60
2013,05,06,07,57,15.70
2013,05,06,07,58,15.80
2013,05,06,07,59,15.80
2013,05,06,08,00,15.80
2013,05,06,08,01,15.90
2013,05,06,08,02,15.90
2013,05,06,08,03,16.00
2013,05,06,08,04,16.00
2013,05,06,08,05,16.10
2013,05,06,08,06,16.20
2013,05,06,08,07,16.20
2013,05,06,08,08,16.20
2013,05,06,08,09,16.30
2013,05,06,08,10,16.30
2013,05,06,08,11,16.40
2013,05,06,08,12,16.40
2013,05,06,08,13,16.50
2013,05,06,08,14,16.50
2013,05,06,08,15,16.60
2013,05,06,08,16,16.60
2013,05,06,08,17,16.60
2013,05,06,08,18,16.70
2013,05,06,08,19,16.70
2013,05,06,08,20,16.70
2013,05,06,08,21,16.70
2013,05,06,08,22,16.80
2013,05,06,08,23,16.80
2013,05,06,08,24,16.80
2013,05,06,08,25,16.80
2013,05,06,08,26,16.90
2013,05,06,08,27,16.90
2013,05,06,08,28,16.90
2013,05,06,08,29,16.90
2013,05,06,08,30,17.00
2013,05,06,08,31,17.00
2013,05,06,08,32,17.10
2013,05,06,08,33,17.10
2013,05,06,08,34,17.10
2013,05,06,08,35,17.20
2013,05,06,08,36,17.20
2013,05,06,08,37,17.20
2013,05,06,08,38,17.20
2013,05,06,08,39,17.30
2013,05,06,08,40,17.30
2013,05,06,08,41,17.30
2013,05,06,08,42,17.30
2013,05,06,08,43,17.40
2013,05,06,08,44,17.40
2013,05,06,08,45,17.40
2013,05,06,08,46,17.40
2013,05,06,08,47,17.40
2013,05,06,08,48,17.50
2013,05,06,08,49,17.50
2013,05,06,08,50,17.50
2013,05,06,08,51,17.60
2013,05,06,08,52,17.60
2013,05,06,08,53,17.60
2013,05,06,08,54,17.70
2013,05,06,08,55,17.70
2013,05,06,08,56,17.80
2013,05,06,08,57,17.80
2013,05,06,08,58,17.90
2013,05,06,08,59,17.90
2013,05,06,09,00,18.00
2013,05,06,09,01,18.00
2013,05,06,09,02,18.10
2013,05,06,09,03,18.10
2013,05,06,09,04,18.10
2013,05,06,09,05,18.20
2013,05,06,09,06,18.20
2013,05,06,09,07,18.20
2013,05,06,09,08,18.20
2013,05,06,09,09,18.30
2013,05,06,09,10,18.30
2013,05,06,09,11,18.30
2013,05,06,09,12,18.30
2013,05,06,09,13,18.40
2013,05,06,09,14,18.40
2013,05,06,09,15,18.40
2013,05,06,09,16,18.50
2013,05,06,09,17,18.50
2013,05,06,09,18,18.50
2013,05,06,09,19,18.60
2013,05,06,09,20,18.60
2013,05,06,09,21,18.60
2013,05,06,09,22,18.70
2013,05,06,09,23,18.70
2013,05,06,09,24,18.70
2013,05,06,09,25,18.70
2013,05,06,09,26,18.70
2013,05,06,09,27,18.70
2013,05,06,09,28,18.70
2013,05,06,09,29,18.70
2013,05,06,09,30,18.80
2013,05,06,09,31,18.80
2013,05,06,09,32,18.80
2013,05,06,09,33,18.80
2013,05,06,09,34,18.90
2013,05,06,09,35,18.90
2013,05,06,09,36,19.00
2013,05,06,09,37,19.10
2013,05,06,09,38,19.10
2013,05,06,09,39,19.20
2013,05,06,09,40,19.20
2013,05,06,09,41,19.30
2013,05,06,09,42,19.40
2013,05,06,09,43,19.40
2013,05,06,09,44,19.50
2013,05,06,09,45,19.50
2013,05,06,09,46,19.60
2013,05,06,09,47,19.60
2013,05,06,09,48,19.60
2013,05,06,09,49,19.60
2013,05,06,09,50,19.70
2013,05,06,09,51,19.70
2013,05,06,09,52,19.70
2013,05,06,09,53,19.70
2013,05,06,09,54,19.70
2013,05,06,09,55,19.70
2013,05,06,09,56,19.70
2013,05,06,09,57,19.70
2013,05,06,09,58,19.70
2013,05,06,09,59,19.70
2013,05,06,10,00,19.70
2013,05,06,10,01,19.70
2013,05,06,10,02,19.80
2013,05,06,10,03,19.80
2013,05,06,10,04,19.90
2013,05,06,10,05,19.90
2013,05,06,10,06,19.80
2013,05,06,10,07,19.80
2013,05,06,10,08,19.80
2013,05,06,10,09,19.80
2013,05,06,10,10,19.70
2013,05,06,10,11,19.70
2013,05,06,10,12,19.70
2013,05,06,10,13,19.70
2013,05,06,10,14,19.70
2013,05,06,10,15,19.70
2013,05,06,10,16,19.70
2013,05,06,10,17,19.70
2013,05,06,10,18,19.60
2013,05,06,10,19,19.60
2013,05,06,10,20,19.60
2013,05,06,10,21,19.60
2013,05,06,10,22,19.60
2013,05,06,10,23,19.70
2013,05,06,10,24,19.70
2013,05,06,10,25,19.80
2013,05,06,10,26,19.90
2013,05,06,10,27,20.00
2013,05,06,10,28,20.00
2013,05,06,10,29,20.00
2013,05,06,10,30,20.10
2013,05,06,10,31,20.20
2013,05,06,10,32,20.30
2013,05,06,10,33,20.40
2013,05,06,10,34,20.50
2013,05,06,10,35,20.60
2013,05,06,10,36,20.70
2013,05,06,10,37,20.70
2013,05,06,10,38,20.80
2013,05,06,10,39,20.80
2013,05,06,10,40,20.80
2013,05,06,10,41,20.90
2013,05,06,10,42,20.90
2013,05,06,10,43,20.90
2013,05,06,10,44,20.90
2013,05,06,10,45,20.90
2013,05,06,10,46,20.90
2013,05,06,10,47,20.90
2013,05,06,10,48,20.90
2013,05,06,10,49,20.90
2013,05,06,10,50,20.90
2013,05,06,10,51,20.90
2013,05,06,10,52,20.90
2013,05,06,10,53,20.90
2013,05,06,10,54,20.80
2013,05,06,10,55,20.80
2013,05,06,10,56,20.80
2013,05,06,10,57,20.70
2013,05,06,10,58,20.70
2013,05,06,10,59,20.80
2013,05,06,11,00,20.80
2013,05,06,11,01,20.80
2013,05,06,11,02,20.70
2013,05,06,11,03,20.80
2013,05,06,11,04,20.80
2013,05,06,11,05,20.80
2013,05,06,11,06,20.90
2013,05,06,11,07,20.90
2013,05,06,11,08,20.90
2013,05,06,11,09,20.90
2013,05,06,11,10,20.90
2013,05,06,11,11,20.80
2013,05,06,11,12,20.80
2013,05,06,11,13,20.80
2013,05,06,11,14,20.70
2013,05,06,11,15,20.60
2013,05,06,11,16,20.50
2013,05,06,11,17,20.50
2013,05,06,11,18,20.50
2013,05,06,11,19,20.50
2013,05,06,11,20,20.60
2013,05,06,11,21,20.70
2013,05,06,11,22,20.80
2013,05,06,11,23,20.90
2013,05,06,11,24,20.90
2013,05,06,11,25,20.90
2013,05,06,11,26,20.90
2013,05,06,11,27,20.80
2013,05,06,11,28,20.90
2013,05,06,11,29,20.90
2013,05,06,11,30,20.90
2013,05,06,11,31,20.90
2013,05,06,11,32,20.90
2013,05,06,11,33,20.80
2013,05,06,11,34,20.80
2013,05,06,11,35,20.80
2013,05,06,11,36,20.90
2013,05,06,11,37,20.90
2013,05,06,11,38,20.90
2013,05,06,11,39,20.90
2013,05,06,11,40,21.00
2013,05,06,11,41,21.10
2013,05,06,11,42,21.20
2013,05,06,11,43,21.20
2013,05,06,11,44,21.20
2013,05,06,11,45,21.10
2013,05,06,11,46,21.10
2013,05,06,11,47,21.20
2013,05,06,11,48,21.20
2013,05,06,11,49,21.40
2013,05,06,11,50,21.50
2013,05,06,11,51,21.50
2013,05,06,11,52,21.50
2013,05,06,11,53,21.50
2013,05,06,11,54,21.60
2013,05,06,11,55,21.60
2013,05,06,11,56,21.60
2013,05,06,11,57,21.60
2013,05,06,11,58,21.80
2013,05,06,11,59,21.90
2013,05,06,12,00,22.00
2013,05,06,12,01,22.00
2013,05,06,12,02,22.10
2013,05,06,12,03,22.10
2013,05,06,12,04,22.10
2013,05,06,12,05,22.10
2013,05,06,12,06,22.20
2013,05,06,12,07,22.20
2013,05,06,12,08,22.20
2013,05,06,12,09,22.20
2013,05,06,12,10,22.20
2013,05,06,12,11,22.20
2013,05,06,12,12,22.20
2013,05,06,12,13,22.20
2013,05,06,12,14,22.20
2013,05,06,12,15,22.20
2013,05,06,12,16,22.10
2013,05,06,12,17,22.00
2013,05,06,12,18,21.90
2013,05,06,12,19,21.90
2013,05,06,12,20,21.90
2013,05,06,12,21,21.90
2013,05,06,12,22,22.00
2013,05,06,12,23,22.10
2013,05,06,12,24,22.20
2013,05,06,12,25,22.30
2013,05,06,12,26,22.50
2013,05,06,12,27,22.60
2013,05,06,12,28,22.70
2013,05,06,12,29,22.60
2013,05,06,12,30,22.60
2013,05,06,12,31,22.50
2013,05,06,12,32,22.60
2013,05,06,12,33,22.60
2013,05,06,12,34,22.60
2013,05,06,12,35,22.70
2013,05,06,12,36,22.60
2013,05,06,12,37,22.50
2013,05,06,12,38,22.50
2013,05,06,12,39,22.60
2013,05,06,12,40,22.60
2013,05,06,12,41,22.50
2013,05,06,12,42,22.50
2013,05,06,12,43,22.50
2013,05,06,12,44,22.50
2013,05,06,12,45,22.50
2013,05,06,12,46,22.60
2013,05,06,12,47,22.60
2013,05,06,12,48,22.60
2013,05,06,12,49,22.70
2013,05,06,12,50,22.70
2013,05,06,12,51,22.70
2013,05,06,12,52,22.70
2013,05,06,12,53,22.80
2013,05,06,12,54,22.80
2013,05,06,12,55,22.90
2013,05,06,12,56,22.90
2013,05,06,12,57,23.00
2013,05,06,12,58,23.10
2013,05,06,12,59,23.10
2013,05,06,13,00,23.20
2013,05,06,13,01,23.30
2013,05,06,13,02,23.30
2013,05,06,13,03,23.30
2013,05,06,13,04,23.30
2013,05,06,13,05,23.20
2013,05,06,13,06,23.20
2013,05,06,13,07,23.20
2013,05,06,13,08,23.10
2013,05,06,13,09,23.00
2013,05,06,13,10,23.00
2013,05,06,13,11,22.90
2013,05,06,13,12,22.80
2013,05,06,13,13,22.80
2013,05,06,13,14,22.80
2013,05,06,13,15,22.70
2013,05,06,13,16,22.70
2013,05,06,13,17,22.80
2013,05,06,13,18,22.80
2013,05,06,13,19,22.80
2013,05,06,13,20,22.90
2013,05,06,13,21,22.90
2013,05,06,13,22,22.90
2013,05,06,13,23,22.90
2013,05,06,13,24,23.00
2013,05,06,13,25,23.10
2013,05,06,13,26,23.10
2013,05,06,13,27,23.10
2013,05,06,13,28,23.20
2013,05,06,13,29,23.20
2013,05,06,13,30,23.30
2013,05,06,13,31,23.20
2013,05,06,13,32,23.20
2013,05,06,13,33,23.20
2013,05,06,13,34,23.20
2013,05,06,13,35,23.20
2013,05,06,13,36,23.20
2013,05,06,13,37,23.20
2013,05,06,13,38,23.20
2013,05,06,13,39,23.20
2013,05,06,13,40,23.20
2013,05,06,13,41,23.20
2013,05,06,13,42,23.20
2013,05,06,13,43,23.20
2013,05,06,13,44,23.20
2013,05,06,13,45,23.20
2013,05,06,13,46,23.20
2013,05,06,13,47,23.10
2013,05,06,13,48,23.10
2013,05,06,13,49,23.10
2013,05,06,13,50,23.20
2013,05,06,13,51,23.20
2013,05,06,13,52,23.20
2013,05,06,13,53,23.30
2013,05,06,13,54,23.40
2013,05,06,13,55,23.40
2013,05,06,13,56,23.50
2013,05,06,13,57,23.50
2013,05,06,13,58,23.60
2013,05,06,13,59,23.70
2013,05,06,14,00,23.80
2013,05,06,14,01,23.80
2013,05,06,14,02,23.60
2013,05,06,14,03,23.50
2013,05,06,14,04,23.40
2013,05,06,14,05,23.30
2013,05,06,14,06,23.30
2013,05,06,14,07,23.20
2013,05,06,14,08,23.30
2013,05,06,14,09,23.30
2013,05,06,14,10,23.20
2013,05,06,14,11,23.20
2013,05,06,14,12,23.30
2013,05,06,14,13,23.30
2013,05,06,14,14,23.40
2013,05,06,14,15,23.50
2013,05,06,14,16,23.50
2013,05,06,14,17,23.50
2013,05,06,14,18,23.50
2013,05,06,14,19,23.50
2013,05,06,14,20,23.60
2013,05,06,14,21,23.60
2013,05,06,14,22,23.70
2013,05,06,14,23,23.70
2013,05,06,14,24,23.70
2013,05,06,14,25,23.70
2013,05,06,14,26,23.70
2013,05,06,14,27,23.70
2013,05,06,14,28,23.70
2013,05,06,14,29,23.70
2013,05,06,14,30,23.80
2013,05,06,14,31,23.80
2013,05,06,14,32,23.80
2013,05,06,14,33,23.80
2013,05,06,14,34,23.90
2013,05,06,14,35,23.90
2013,05,06,14,36,24.00
2013,05,06,14,37,24.00
2013,05,06,14,38,24.10
2013,05,06,14,39,24.10
2013,05,06,14,40,24.10
2013,05,06,14,41,24.20
2013,05,06,14,42,24.20
2013,05,06,14,43,24.10
2013,05,06,14,44,24.00
2013,05,06,14,45,24.00
2013,05,06,14,46,23.90
2013,05,06,14,47,23.90
2013,05,06,14,48,23.90
2013,05,06,14,49,23.90
2013,05,06,14,50,23.80
2013,05,06,14,51,23.80
2013,05,06,14,52,23.80
2013,05,06,14,53,23.80
2013,05,06,14,54,23.90
2013,05,06,14,55,23.90
2013,05,06,14,56,24.00
2013,05,06,14,57,24.10
2013,05,06,14,58,24.20
2013,05,06,14,59,24.20
2013,05,06,15,00,24.20
2013,05,06,15,01,24.30
2013,05,06,15,02,24.40
2013,05,06,15,03,24.30
2013,05,06,15,04,24.30
2013,05,06,15,05,24.30
2013,05,06,15,06,24.30
2013,05,06,15,07,24.30
2013,05,06,15,08,24.30
2013,05,06,15,09,24.30
2013,05,06,15,10,24.20
2013,05,06,15,11,24.30
2013,05,06,15,12,24.30
2013,05,06,15,13,24.40
2013,05,06,15,14,24.50
2013,05,06,15,15,24.60
2013,05,06,15,16,24.70
2013,05,06,15,17,24.70
2013,05,06,15,18,24.80
2013,05,06,15,19,24.90
2013,05,06,15,20,25.00
2013,05,06,15,21,25.10
2013,05,06,15,22,25.10
2013,05,06,15,23,25.00
2013,05,06,15,24,25.00
2013,05,06,15,25,25.00
2013,05,06,15,26,25.00
2013,05,06,15,27,25.10
2013,05,06,15,28,25.10
2013,05,06,15,29,25.10
2013,05,06,15,30,25.10
2013,05,06,15,31,25.20
2013,05,06,15,32,25.20
2013,05,06,15,33,25.30
2013,05,06,15,34,25.30
2013,05,06,15,35,25.30
2013,05,06,15,36,25.40
2013,05,06,15,37,25.50
2013,05,06,15,38,25.60
2013,05,06,15,39,25.60
2013,05,06,15,40,25.60
2013,05,06,15,41,25.60
2013,05,06,15,42,25.60
2013,05,06,15,43,25.60
2013,05,06,15,44,25.50
2013,05,06,15,45,25.50
2013,05,06,15,46,25.60
2013,05,06,15,47,25.60
2013,05,06,15,48,25.70
2013,05,06,15,49,25.70
2013,05,06,15,50,25.70
2013,05,06,15,51,25.70
2013,05,06,15,52,25.60
2013,05,06,15,53,25.50
2013,05,06,15,54,25.50
2013,05,06,15,55,25.50
2013,05,06,15,56,25.50
2013,05,06,15,57,25.50
2013,05,06,15,58,25.60
2013,05,06,15,59,25.60
2013,05,06,16,00,25.70
2013,05,06,16,01,25.90
2013,05,06,16,02,25.90
2013,05,06,16,03,26.00
2013,05,06,16,04,26.10
2013,05,06,16,05,26.10
2013,05,06,16,06,26.20
2013,05,06,16,07,26.20
2013,05,06,16,08,26.20
2013,05,06,16,09,26.20
2013,05,06,16,10,26.20
2013,05,06,16,11,26.20
2013,05,06,16,12,26.20
2013,05,06,16,13,26.20
2013,05,06,16,14,26.20
2013,05,06,16,15,26.20
2013,05,06,16,16,26.20
2013,05,06,16,17,26.10
2013,05,06,16,18,26.10
2013,05,06,16,19,26.00
2013,05,06,16,20,25.90
2013,05,06,16,21,25.90
2013,05,06,16,22,25.90
2013,05,06,16,23,25.90
2013,05,06,16,24,25.90
2013,05,06,16,25,25.90
2013,05,06,16,26,25.90
2013,05,06,16,27,25.90
2013,05,06,16,28,25.80
2013,05,06,16,29,25.70
2013,05,06,16,30,25.50
2013,05,06,16,31,25.40
2013,05,06,16,32,25.30
2013,05,06,16,33,25.30
2013,05,06,16,34,25.30
2013,05,06,16,35,25.20
2013,05,06,16,36,25.20
2013,05,06,16,37,25.30
2013,05,06,16,38,25.30
2013,05,06,16,39,25.40
2013,05,06,16,40,25.50
2013,05,06,16,41,25.50
2013,05,06,16,42,25.60
2013,05,06,16,43,25.60
2013,05,06,16,44,25.60
2013,05,06,16,45,25.60
2013,05,06,16,46,25.60
2013,05,06,16,47,25.60
2013,05,06,16,48,25.60
2013,05,06,16,49,25.60
2013,05,06,16,50,25.60
2013,05,06,16,51,25.60
2013,05,06,16,52,25.70
2013,05,06,16,53,25.70
2013,05,06,16,54,25.80
2013,05,06,16,55,25.80
2013,05,06,16,56,25.80
2013,05,06,16,57,25.80
2013,05,06,16,58,25.80
2013,05,06,16,59,25.80
2013,05,06,17,00,25.80
2013,05,06,17,01,25.80
2013,05,06,17,02,25.80
2013,05,06,17,03,25.90
2013,05,06,17,04,25.90
2013,05,06,17,05,25.90
2013,05,06,17,06,25.90
2013,05,06,17,07,25.90
2013,05,06,17,08,25.90
2013,05,06,17,09,25.90
2013,05,06,17,10,25.90
2013,05,06,17,11,25.80
2013,05,06,17,12,25.70
2013,05,06,17,13,25.60
2013,05,06,17,14,25.50
2013,05,06,17,15,25.50
2013,05,06,17,16,25.40
2013,05,06,17,17,25.40
2013,05,06,17,18,25.30
2013,05,06,17,19,25.30
2013,05,06,17,20,25.20
2013,05,06,17,21,25.20
2013,05,06,17,22,25.10